Regional Weather Roundup
Issued by NWS

Home | Current Version | Previous Version | Graphics & Text | Print | Product List | Glossary On
Versions: 1 2 3 4 5 6 7 8 9 10 11 12 13 14 15 16 17 18 19 20 21 22 23 24 25 26 27 28 29 30 31 32 33 34 35 36 37 38 39 40 41 42 43 44 45 46 47 48 49 50
000
ASUS44 KMEG 222310
RWRTN
TENNESSEE HOURLY STATE WEATHER ROUNDUP
NATIONAL WEATHER SERVICE MEMPHIS TN
600 PM CDT TUE JUL 22 2014

TNZ002-004-019-021-049-052-054-088>092-230000-
WEST TENNESSEE

CITY           SKY/WX    TMP DP  RH WIND       PRES   REMARKS
MEMPHIS INTL   MOSUNNY   89  70  53 NW8       30.03F HX  94
NWS MEMPHIS      N/A     89 N/A N/A MISG        N/A
JACKSON        SUNNY     89  69  51 NW5       30.03F HX  93
DYERSBURG      SUNNY     90  66  45 W5        30.03F HX  92
UNION CITY     SUNNY     90  72  55 CALM      30.02S HX  96
PARIS          SUNNY     87  72  61 W3        30.04F HX  93
LEXINGTON      SUNNY     84  73  70 SE3       30.04S HX  91
SAVANNAH       SUNNY     88  75  65 CALM      30.05S HX  97
$$

TNZ008-025-027-028-033-062-065-066-230000-
NORTH MIDDLE TENNESSEE

CITY           SKY/WX    TMP DP  RH WIND       PRES   REMARKS
NASHVILLE      MOSUNNY   89  70  53 SW6       30.04F HX  94
DICKSON        MOSUNNY   86  72  62 S6        30.06S HX  92
PORTLAND       SUNNY     90  70  51 SE5       30.04F HX  95
CLARKSVILLE    SUNNY     91  68  46 W6        30.02F HX  95
LEBANON        MOSUNNY   90  68  48 SW3       30.03  HX  94
SMYRNA         MOSUNNY   93  72  50 CALM      30.04F HX 100
MURFREESBORO   MOSUNNY   91  69  48 S3        30.04F HX  95
COOKEVILLE     MOSUNNY   91  72  52 CALM      30.07F HX  98
GALLATIN       MOSUNNY   92  70  48 SE7       30.05S HX  97
CROSSVILLE     MOSUNNY   81  68  64 NW6       30.13F
$$

TNZ061-075-076-078-094-096-097-230000-
SOUTH MIDDLE TENNESSEE

CITY           SKY/WX    TMP DP  RH WIND       PRES   REMARKS
LEWISBURG      MOSUNNY   90  70  51 SW3       30.05F HX  95
FAYETTEVILLE   SUNNY     84  70  61 SW9       30.07S
TULLAHOMA      SUNNY     86  70  58 W3        30.08S HX  90
WINCHESTER     CLOUDY    88  70  55 S6        30.06F HX  92
MCMINNVILLE    SUNNY     86  72  62 CALM      30.07F HX  92
COLUMBIA       SUNNY     90  75  62 S5        30.04F HX 100
SHELBYVILLE    SUNNY     88  72  58 CALM      30.06F HX  94
$$

TNZ017-018-042-046-047-230000-
NORTHEAST TENNESSEE

CITY           SKY/WX    TMP DP  RH WIND       PRES   REMARKS
TRI CITIES     MOSUNNY   88  65  46 VRB3      30.10S HX  90
ELIZABETHTON   CLEAR     77  70  78 NW5       30.11R
$$

TNZ012-013-036-069-073-074-230000-
CENTRAL EAST TENNESSEE

CITY           SKY/WX    TMP DP  RH WIND       PRES   REMARKS
KNOXVILLE      MOSUNNY   85  71  63 S7        30.06F HX  90
OAK RIDGE      MOSUNNY   88  69  53 VRB3      30.07F HX  92
GATLINBURG     PTCLDY    88  66  48 CALM      30.06F HX  90
MORRISTOWN     CLEAR     84  66  54 N3        30.10F
$$

TNZ083-085-099-230000-
SOUTHEAST TENNESSEE

CITY           SKY/WX    TMP DP  RH WIND       PRES   REMARKS
CHATTANOOGA    PTSUNNY   83  69  62 CALM      30.07F
$$

SKY/WX REPORTED AS FAIR MEANS FEW OR NO CLOUDS BELOW
12 THOUSAND FEET.




USA.gov is the U.S. government's official web portal to all federal, state and local government web resources and services.